TimeAKDT,TemperatureF,Dew PointF,Humidity,Sea Level PressureIn,VisibilityMPH,Wind Direction,Wind SpeedMPH,Gust SpeedMPH,PrecipitationIn,Events,Conditions,WindDirDegrees,DateUTC
12:53 AM,37.0,36.0,96,29.55,5.0,South,17.3,26.5,0.06,Rain,Ice Pellets,180,2013-04-28 08:53:00
1:01 AM,35.6,33.8,93,29.56,3.0,SSE,10.4,21.9,0.01,Rain-Snow,Light Rain,150,2013-04-28 09:01:00
1:20 AM,37.4,35.6,93,29.55,10.0,East,12.7,-,0.01,Rain,Light Rain,100,2013-04-28 09:20:00
1:33 AM,37.4,35.6,93,29.55,10.0,East,12.7,-,0.01,Rain,Light Rain,100,2013-04-28 09:33:00
1:53 AM,37.0,34.0,89,29.54,9.0,ESE,8.1,-,0.02,Rain,Light Rain,110,2013-04-28 09:53:00
2:04 AM,37.4,33.8,87,29.54,6.0,East,9.2,-,0.01,Rain-Snow,Light Rain,100,2013-04-28 10:04:00
2:13 AM,35.6,33.8,93,29.54,2.5,ESE,9.2,-,0.04,Snow,Light Snow,110,2013-04-28 10:13:00
2:27 AM,35.6,33.8,93,29.54,3.0,ESE,8.1,-,0.06,Snow,Light Snow,120,2013-04-28 10:27:00
2:53 AM,36.0,34.0,93,29.54,6.0,ESE,10.4,-,0.07,Rain-Snow,Light Rain,120,2013-04-28 10:53:00
3:09 AM,35.6,33.8,93,29.54,10.0,East,9.2,-,0.00,Rain-Snow,Light Rain,100,2013-04-28 11:09:00
3:23 AM,37.4,35.6,93,29.54,7.0,ESE,8.1,-,0.01,Rain-Snow,Light Rain,120,2013-04-28 11:23:00
3:53 AM,36.0,35.1,97,29.53,8.0,East,4.6,-,0.02,Rain,Light Rain,80,2013-04-28 11:53:00
4:21 AM,37.4,35.6,93,29.55,6.0,WSW,19.6,27.6,0.04,Rain-Snow,Light Rain,250,2013-04-28 12:21:00
4:43 AM,35.6,35.6,100,29.56,6.0,WSW,11.5,-,0.08,Rain-Snow,Light Rain,250,2013-04-28 12:43:00
4:53 AM,37.0,37.0,100,29.56,10.0,SW,5.8,-,0.08,,Overcast,230,2013-04-28 12:53:00
5:04 AM,37.4,37.4,100,29.56,10.0,SW,4.6,-,N/A,,Overcast,230,2013-04-28 13:04:00
5:28 AM,39.2,37.4,93,29.56,5.0,SSW,8.1,-,0.01,Rain,Light Rain,200,2013-04-28 13:28:00
5:32 AM,37.4,35.6,93,29.56,2.5,Variable,6.9,-,0.03,Rain,Heavy Ice Pellets,0,2013-04-28 13:32:00
5:46 AM,37.4,33.8,87,29.55,10.0,Calm,Calm,-,0.08,,Overcast,0,2013-04-28 13:46:00
5:53 AM,37.0,35.1,93,29.55,9.0,Calm,Calm,-,0.08,Rain,Light Rain,0,2013-04-28 13:53:00
6:01 AM,37.4,33.8,87,29.55,10.0,East,3.5,-,0.00,Rain,Light Rain,80,2013-04-28 14:01:00
6:22 AM,37.4,35.6,93,29.55,10.0,East,4.6,-,0.00,Rain,Light Rain,100,2013-04-28 14:22:00
6:53 AM,36.0,34.0,93,29.56,10.0,East,3.5,-,0.00,,Overcast,90,2013-04-28 14:53:00
7:53 AM,37.0,33.1,86,29.56,6.0,West,6.9,-,0.00,Rain,Light Rain,280,2013-04-28 15:53:00
8:21 AM,37.4,33.8,87,29.57,10.0,NE,4.6,-,0.00,,Overcast,50,2013-04-28 16:21:00
8:46 AM,37.4,35.6,93,29.57,10.0,ENE,3.5,-,0.00,,Mostly Cloudy,70,2013-04-28 16:46:00
8:53 AM,37.0,35.1,93,29.57,10.0,Calm,Calm,-,0.00,,Mostly Cloudy,0,2013-04-28 16:53:00
9:22 AM,37.4,35.6,93,29.58,9.0,East,5.8,-,0.02,Rain,Ice Pellets,80,2013-04-28 17:22:00
9:53 AM,37.0,34.0,89,29.58,8.0,ESE,6.9,-,0.04,Rain,Light Rain,120,2013-04-28 17:53:00
10:00 AM,37.4,35.6,93,29.59,8.0,ESE,6.9,-,0.00,Rain,Light Rain,110,2013-04-28 18:00:00
10:53 AM,37.0,34.0,89,29.60,6.0,ENE,9.2,-,0.00,Rain,Light Rain,60,2013-04-28 18:53:00
11:04 AM,37.4,33.8,87,29.60,5.0,NE,8.1,-,0.00,,Overcast,50,2013-04-28 19:04:00
11:31 AM,35.6,33.8,93,29.62,3.0,East,4.6,-,0.03,Snow,Light Snow,90,2013-04-28 19:31:00
11:33 AM,35.6,33.8,93,29.62,2.0,East,5.8,-,0.04,Snow,Light Snow,90,2013-04-28 19:33:00
11:53 AM,34.0,33.1,96,29.62,2.0,ESE,6.9,-,0.10,Snow,Light Snow,110,2013-04-28 19:53:00
11:58 AM,33.8,33.8,100,29.63,1.0,ESE,6.9,-,0.01,Snow,Light Snow,110,2013-04-28 19:58:00
12:06 PM,33.8,33.8,100,29.63,1.0,East,6.9,-,0.02,Snow,Light Snow,100,2013-04-28 20:06:00
12:13 PM,33.8,33.8,100,29.63,2.0,East,5.8,-,0.02,Snow,Light Snow,100,2013-04-28 20:13:00
12:20 PM,35.6,35.6,100,29.63,4.0,East,6.9,-,0.02,Snow,Light Snow,100,2013-04-28 20:20:00
12:31 PM,37.4,35.6,93,29.63,7.0,East,6.9,-,0.03,Snow,Light Snow,100,2013-04-28 20:31:00
12:53 PM,37.9,37.0,97,29.64,9.0,East,6.9,-,0.03,,Mostly Cloudy,90,2013-04-28 20:53:00
1:23 PM,39.2,35.6,87,29.64,10.0,SE,4.6,-,N/A,,Scattered Clouds,140,2013-04-28 21:23:00
1:53 PM,41.0,36.0,82,29.65,10.0,SSE,4.6,-,N/A,,Mostly Cloudy,160,2013-04-28 21:53:00
2:53 PM,43.0,35.1,74,29.65,10.0,SSE,3.5,-,N/A,,Mostly Cloudy,160,2013-04-28 22:53:00
3:53 PM,42.1,36.0,79,29.66,10.0,SW,9.2,-,N/A,,Mostly Cloudy,220,2013-04-28 23:53:00
4:22 PM,41.0,35.6,81,29.67,10.0,WNW,6.9,-,N/A,,Overcast,290,2013-04-29 00:22:00
4:53 PM,39.0,36.0,89,29.68,10.0,NNW,6.9,-,0.00,Rain,Light Rain,330,2013-04-29 00:53:00
5:53 PM,39.0,35.1,86,29.70,10.0,NNW,8.1,-,0.06,Rain,Light Rain,340,2013-04-29 01:53:00
6:17 PM,39.2,33.8,81,29.71,10.0,Calm,Calm,-,0.00,Rain,Light Rain,0,2013-04-29 02:17:00
6:50 PM,39.2,33.8,81,29.73,10.0,NNE,3.5,-,0.00,Rain,Light Rain,30,2013-04-29 02:50:00
6:53 PM,39.0,33.1,79,29.73,10.0,Calm,Calm,-,0.00,Rain,Light Rain,0,2013-04-29 02:53:00
7:53 PM,37.0,32.0,82,29.76,10.0,NNW,15.0,-,0.01,,Overcast,340,2013-04-29 03:53:00
8:16 PM,37.4,33.8,87,29.77,10.0,NNW,16.1,-,0.00,,Overcast,330,2013-04-29 04:16:00
8:53 PM,37.0,33.1,86,29.78,10.0,NNW,10.4,-,0.00,,Overcast,340,2013-04-29 04:53:00
9:00 PM,37.4,33.8,87,29.79,10.0,NNW,11.5,-,N/A,,Overcast,340,2013-04-29 05:00:00
9:34 PM,37.4,32.0,81,29.80,10.0,North,6.9,-,N/A,,Mostly Cloudy,350,2013-04-29 05:34:00
9:43 PM,35.6,32.0,87,29.81,10.0,North,10.4,-,N/A,,Mostly Cloudy,350,2013-04-29 05:43:00
9:53 PM,37.0,30.9,79,29.81,10.0,North,11.5,-,N/A,,Scattered Clouds,350,2013-04-29 05:53:00
10:04 PM,35.6,30.2,81,29.82,10.0,North,9.2,-,N/A,,Mostly Cloudy,350,2013-04-29 06:04:00
10:15 PM,35.6,30.2,81,29.83,10.0,NNW,12.7,-,N/A,,Mostly Cloudy,340,2013-04-29 06:15:00
10:53 PM,36.0,28.0,73,29.84,10.0,North,11.5,-,N/A,,Scattered Clouds,350,2013-04-29 06:53:00
11:53 PM,35.1,26.1,70,29.87,10.0,North,8.1,-,N/A,,Clear,350,2013-04-29 07:53:00